Preview of NWS' New Version of Forecast
This preview is not operational and should not be used for support decisions.

Regional Weather Roundup (RWR)

Issued by Philadelphia/Mt Holly (PHI)

                            
000
ASUS41 KPHI 180012
RWRPHI

REGIONAL WEATHER ROUNDUP
NATIONAL WEATHER SERVICE MOUNT HOLLY NJ
800 PM EDT TUE SEP 17 2019

NOTE:  "FAIR" INDICATES FEW OR NO CLOUDS BELOW 12,000 FEET WITH NO
SIGNIFICANT WEATHER AND/OR OBSTRUCTIONS TO VISIBILITY.

 * = STATION DOES NOT REPORT PRECIPITATION (E.G. RAIN, SNOW, ETC.) 
        OR FOG.

NJZ015>026-180100-
SOUTHERN NEW JERSEY
  
CITY           SKY/WX    TMP DP  RH WIND       PRES   REMARKS
POMONA         FAIR      65  52  62 SE3       30.11R                  
6HR MIN TEMP:  64; 6HR MAX TEMP:  76;                                

WILDWOOD*      FAIR      66  52  60 E3        30.12R                  
MILLVILLE      FAIR      65  51  60 CALM      30.12R                  
WRIGHTSTOWN    FAIR      66  52  60 S3        30.11R                  
MOUNT HOLLY    FAIR      65  52  62 SE3       30.11R                  
TRENTON        FAIR      68  45  43 CALM      30.11R                  
6HR MIN TEMP:  68; 6HR MAX TEMP:  78;                                


$$
NJZ001>014-180100-
NORTHERN NEW JERSEY
  
CITY           SKY/WX    TMP DP  RH WIND       PRES   REMARKS
SUSSEX         FAIR      62  50  64 CALM      30.14R                  
ANDOVER*         N/A     60  55  83 CALM      30.14R                  
MORRISTOWN     CLEAR     63  54  72 NE6       30.13R                  
NEWARK         FAIR      71  38  29 NE10      30.12R                  
TETERBORO      FAIR      70  39  32 NE7       30.11R                  
CALDWELL       FAIR      69  40  34 E3        30.13R                  
SOMERVILLE     FAIR      61  52  72 CALM      30.10R                  
ALLAIRE*       FAIR      65  52  62 CALM      30.13R                  
TOMS RIVER*    FAIR      60  59  96 CALM      30.12R                  

$$
PAZ043-044-047-054-055-060>062-066>071-180100-
EASTERN PENNSYLVANIA
  
CITY           SKY/WX    TMP DP  RH WIND       PRES   REMARKS
PHILADELPHIA   FAIR      73  45  36 NE5       30.11R                  
6HR MIN TEMP:  72; 6HR MAX TEMP:  81;                                

NORTH PHILA    FAIR      71  46  40 NE5       30.12R                  
BLUE BELL*     FAIR      59  56  89 CALM      30.12R                  
DOYLESTOWN     FAIR      65  48  54 CALM      30.11R                  
QUAKERTOWN*    CLEAR     61  54  77 CALM      30.13                   
PERKASIE*      FAIR      59  57  94 CALM      30.14R                  
POTTSTOWN      FAIR      63  52  67 CALM      30.13R                  
LANCASTER      FAIR      68  50  52 N7        30.12R                  
COATESVILLE    FAIR      64  52  63 CALM      30.14R                  
WEST CHESTER   FAIR      68  50  52 CALM      30.12R                  
READING        FAIR      69  52  54 N5        30.11R                  
6HR MIN TEMP:  68; 6HR MAX TEMP:  79;                                

ALLENTOWN      FAIR      70  44  39 N6        30.12R                  
6HR MIN TEMP:  69; 6HR MAX TEMP:  80;                                

QN CITY/ALNTWN FAIR      66  52  59 SE3       30.14R                  
MOUNT POCONO   FAIR      59  44  57 N6        30.17R                  
6HR MIN TEMP:  59; 6HR MAX TEMP:  71;                                

HAZLETON       FAIR      54  48  82 CALM      30.21R                  
LEHIGHTON      FAIR      57  52  82 CALM      30.14R                  
WILKES BARRE   FAIR      64  49  57 E5        30.16R                  

$$
DEZALL-MDZ008-012-015-019-020-180100-
DELAWARE AND EASTERN MARYLAND
  
CITY           SKY/WX    TMP DP  RH WIND       PRES   REMARKS
WILMINGTON     FAIR      70  49  47 N6        30.11R                  
6HR MIN TEMP:  70; 6HR MAX TEMP:  81;                                

DOVER          FAIR      65  54  66 SE7       30.11R                  
CHESWOLD       CLEAR     66  55  68 S5        30.11R                  
GEORGETOWN     FAIR      65  56  72 CALM      30.12R                  
6HR MIN TEMP:  65; 6HR MAX TEMP:  77;                                

EASTON         PTCLDY    70  57  64 E3        30.14R                  
STEVENSVILLE   FAIR      72  55  56 SE8       30.10R                  
ABERDEEN       CLEAR     66  53  64 CALM      30.10R                  
PATUXENT       FAIR      73  58  59 SE12      30.09                   
OCEAN CITY     FAIR      68  54  60 E10       30.11S                  
WALLOPS ISLAND FAIR      67  56  67 NE10      30.10R                  
CAMBRIDGE      CLEAR     68  55  64 SE7       30.11R                  
SALISBURY      FAIR      64  54  69 E3        30.11R                  

$$
PAZ001-021-NYZ056-072-MDZ011-DCZ001-180100-
OTHER NEARBY LOCATIONS
  
CITY           SKY/WX    TMP DP  RH WIND       PRES   REMARKS
HARRISBURG     FAIR      72  46  39 N3        30.11R                  
STATE COLLEGE  CLEAR     66  48  52 NE5       30.17R                  
WILLIAMSPORT   FAIR      61  53  75 SW3       30.14R                  
BINGHAMTON     FAIR      60  45  57 N9        30.19R                  
NEW YORK CITY  FAIR      69  38  32 VRB7      30.15R                  
BALTIMORE      FAIR      74  56  53 CALM      30.09R                  
WASHINGTON DC  FAIR      75  58  55 E5        30.09R                  

$$